{"data":{"norad_id":63406,"epoch":"2026-08-06T17:33:23.203584Z","epoch_age_seconds":4026767,"freshness":"OLD","line1":"1 63406U 25065H   26218.73151856  .05689119  10108+0  43230-2 0  9994","line2":"2 63406  42.9974 327.7434 0004617 317.7932  42.2598 16.19222962 75918","mean_motion":16.19222962,"eccentricity":0.0004617,"inclination_deg":42.9974,"raan_deg":327.7434,"arg_perigee_deg":317.7932,"mean_anomaly_deg":42.2598,"bstar":0.004323,"rev_number":7591,"period_min":88.931545179014,"perigee_km":218.61532297736,"apogee_km":224.70957778984,"semimajor_km":6599.7994503836,"source":"CELESTRAK","updated_at":"2026-08-07T09:01:04.563417Z"}}